Location: Unspecified
(54.1780°N, 0.0000°E)
Time: 08:27:01
(UTC+00:00)

Altair - Pass Details

Date: 27 June 2019
Orbit: 1501 x 1683 km, 47.2° (Epoch: 24 July)

Event Time Altitude Azimuth Distance (km) Brightness Sun altitude
Rises 01:01:12 0° 284° (WNW) 4,822 10.1 -11.5°
Reaches altitude 10° 01:04:51 10° 274° (W) 3,861 9.5 -11.3°
Maximum altitude 01:12:38 27° 221° (SW) 2,770 8.3 -11.0°
Drops below altitude 10° 01:20:33 10° 169° (SSE) 3,930 9.1 -10.7°
Sets 01:24:21 0° 158° (SSE) 4,923 9.7 -10.5°
